Pittsburg, KS

8:27 AM CST on December 03, 2016 (GMT -0600)
Atkinson Municipal

Weather History for KPTS - April, 2013

Change the Weather History Date:

Monday, April 22, 2013

  Actual Average (KJLN) Record (KJLN)
Temperature  
Mean Temperature 60 °F 60 °F  
Max Temperature 70 °F 72 °F 90 °F (1965)
Min Temperature 50 °F 49 °F 29 °F (1986)
Degree Days  
Heating Degree Days 5 6  
Month to date heating degree days 199  
Since 1 July heating degree days 3961  
Cooling Degree Days 0 2  
Month to date cooling degree days 28  
Year to date cooling degree days 38  
Growing Degree Days 10 (Base 50)    
Moisture  
Dew Point 43 °F    
Average Humidity 55    
Maximum Humidity 95    
Minimum Humidity 36    
Precipitation  
Precipitation 0.00 in 0.16 in 2.36 in (1983)
Month to date precipitation 3.02  
Year to date precipitation 10.79  
Sea Level Pressure  
Sea Level Pressure 30.03 in    
Wind  
Wind Speed 8 mph (SSE)    
Max Wind Speed 16 mph    
Max Gust Speed 22 mph    
Visibility 10 miles    
Events Thunderstorm    
T = Trace of Precipitation, MM = Missing Value Source: NWS Daily Summary

Daily Weather History Graph

Daily Weather History Graph

Search for Another Location

Airport or City:

Trip Planner

Search our weather history database for the weather conditions in past years. The results will help you decide how hot, cold, wet, or windy it might be!

Date:

Astronomy

Apr. 22, 2013 Rise Set
Actual Time 6:34 AM CDT 8:00 PM CDT
Civil Twilight 6:07 AM CDT 8:28 PM CDT
Nautical Twilight 5:34 AM CDT 9:01 PM CDT
Astronomical Twilight 4:59 AM CDT 9:36 PM CDT
Moon 4:54 PM CDT (4/22) 4:25 AM CDT (4/22)
Length of Visible Light 14h 21m
Length of Day
13h 26m
Waxing Gibbous, 88% of the Moon is Illuminated
Apr 22
Waxing Gibbous
Apr 25
Full
May 2
Last Quarter
May 9
New
May 17
First Quarter

Hourly Weather History & Observations

Time (CDT) Temp. Dew Point Humidity Pressure Visibility Wind Dir Wind Speed Gust Speed Precip Events Conditions
12:15 AM 54.7 °F 40.8 °F 60% 30.16 in 10.0 mi SSE 6.9 mph - N/A   Clear
12:35 AM 55.8 °F 41.5 °F 59% 30.16 in 10.0 mi SSE 8.1 mph - N/A   Clear
12:55 AM 55.4 °F 41.4 °F 59% 30.15 in 10.0 mi SSE 6.9 mph - N/A   Clear
1:15 AM 53.4 °F 39.9 °F 60% 30.15 in 10.0 mi SSE 6.9 mph - N/A   Clear
1:35 AM 53.2 °F 40.1 °F 61% 30.14 in 10.0 mi SSE 6.9 mph - N/A   Clear
1:55 AM 53.2 °F 40.3 °F 61% 30.14 in 10.0 mi SSE 8.1 mph - N/A   Clear
2:15 AM 52.9 °F 39.9 °F 61% 30.14 in 10.0 mi SSE 6.9 mph - N/A   Clear
2:35 AM 51.8 °F 39.0 °F 62% 30.12 in 10.0 mi SSE 6.9 mph - N/A   Clear
2:55 AM 51.6 °F 38.8 °F 62% 30.12 in 10.0 mi SSE 8.1 mph - N/A   Clear
3:15 AM 51.6 °F 38.7 °F 61% 30.12 in 10.0 mi SSE 6.9 mph - N/A   Clear
3:35 AM 50.9 °F 38.1 °F 62% 30.11 in 10.0 mi SSE 6.9 mph - N/A   Clear
3:55 AM 50.9 °F 38.1 °F 62% 30.12 in 10.0 mi SSE 6.9 mph - N/A   Clear
4:15 AM 50.9 °F 39.4 °F 65% 30.12 in 10.0 mi SSE 5.8 mph - N/A   Clear
4:35 AM 50.9 °F 40.1 °F 67% 30.11 in 10.0 mi SE 4.6 mph - N/A   Clear
4:55 AM 50.9 °F 40.3 °F 67% 30.12 in 10.0 mi SE 4.6 mph - N/A   Clear
5:15 AM 50.5 °F 40.8 °F 69% 30.11 in 10.0 mi SSE 4.6 mph - N/A   Clear
5:35 AM 50.5 °F 41.2 °F 70% 30.11 in 10.0 mi SE 5.8 mph - N/A   Clear
5:55 AM 50.9 °F 41.2 °F 69% 30.11 in 10.0 mi SE 5.8 mph - N/A   Clear
6:15 AM 50.9 °F 41.0 °F 69% 30.11 in 10.0 mi SSE 6.9 mph - N/A   Clear
6:35 AM 50.9 °F 40.8 °F 68% 30.12 in 10.0 mi SSE 5.8 mph - N/A   Clear
6:55 AM 50.9 °F 41.2 °F 69% 30.12 in 10.0 mi SSE 6.9 mph - N/A   Clear
7:15 AM 50.9 °F 41.2 °F 69% 30.12 in 10.0 mi SSE 5.8 mph - N/A   Clear
7:35 AM 50.9 °F 40.3 °F 67% 30.12 in 10.0 mi SSE 6.9 mph - N/A   Clear
7:55 AM 50.9 °F 40.1 °F 67% 30.12 in 10.0 mi SSE 6.9 mph - N/A   Clear
8:15 AM 51.4 °F 40.1 °F 65% 30.12 in 10.0 mi SSE 9.2 mph - N/A   Clear
8:35 AM 52.9 °F 40.8 °F 64% 30.11 in 10.0 mi SSE 8.1 mph - N/A   Clear
8:55 AM 54.7 °F 41.7 °F 62% 30.11 in 10.0 mi SSE 10.4 mph - N/A   Clear
9:15 AM 55.8 °F 41.9 °F 60% 30.10 in 10.0 mi SSE 9.2 mph - N/A   Clear
9:35 AM 55.8 °F 41.5 °F 59% 30.10 in 10.0 mi SSE 8.1 mph - N/A   Clear
9:55 AM 57.0 °F 41.9 °F 57% 30.10 in 10.0 mi South 9.2 mph - N/A   Clear
10:15 AM 60.3 °F 42.4 °F 52% 30.10 in 10.0 mi South 10.4 mph - N/A   Clear
10:35 AM 61.0 °F 42.1 °F 50% 30.09 in 10.0 mi South 13.8 mph - N/A   Clear
10:55 AM 62.4 °F 41.9 °F 47% 30.09 in 10.0 mi South 12.7 mph - N/A   Clear
11:15 AM 63.9 °F 41.0 °F 43% 30.08 in 10.0 mi SSW 15.0 mph 21.9 mph N/A   Clear
11:35 AM 64.9 °F 40.6 °F 41% 30.07 in 10.0 mi South 10.4 mph 16.1 mph N/A   Clear
11:55 AM 66.4 °F 41.7 °F 41% 30.07 in 10.0 mi South 11.5 mph 21.9 mph N/A   Clear
12:15 PM 67.6 °F 42.4 °F 40% 30.05 in 10.0 mi South 15.0 mph 20.7 mph N/A   Clear
12:35 PM 69.3 °F 43.2 °F 39% 30.03 in 10.0 mi South 15.0 mph 21.9 mph N/A   Clear
12:55 PM 68.5 °F 41.5 °F 37% 30.02 in 10.0 mi South 15.0 mph 21.9 mph N/A   Clear
1:15 PM 69.4 °F 41.9 °F 37% 30.00 in 10.0 mi SSE 15.0 mph 18.4 mph N/A   Clear
1:35 PM 68.2 °F 40.8 °F 37% 29.99 in 10.0 mi SSE 13.8 mph 19.6 mph N/A   Clear
1:55 PM 67.1 °F 39.9 °F 37% 29.97 in 10.0 mi SSE 16.1 mph - N/A   Clear
2:15 PM 68.9 °F 41.0 °F 36% 29.94 in 10.0 mi SSE 13.8 mph 18.4 mph N/A   Clear
2:35 PM 68.9 °F 40.6 °F 36% 29.95 in 10.0 mi SSE 12.7 mph - N/A   Clear
2:55 PM 68.5 °F 41.5 °F 37% 29.94 in 10.0 mi SE 10.4 mph - N/A   Clear
3:15 PM 68.4 °F 41.9 °F 38% 29.93 in 10.0 mi SSE 13.8 mph - N/A Thunderstorm Clear
3:35 PM 68.4 °F 42.3 °F 39% 29.93 in 10.0 mi SE 8.1 mph - N/A   Clear
3:55 PM 68.4 °F 42.8 °F 40% 29.93 in 10.0 mi SE 4.6 mph - N/A Thunderstorm Thunderstorm
4:15 PM 68.4 °F 43.0 °F 40% 29.94 in 10.0 mi SSW 3.5 mph - N/A   Scattered Clouds
4:35 PM 66.9 °F 43.5 °F 43% 29.93 in 10.0 mi South 6.9 mph - N/A   Scattered Clouds
4:55 PM 66.4 °F 43.0 °F 43% 29.92 in 10.0 mi South 6.9 mph - N/A   Scattered Clouds
5:15 PM 69.8 °F 43.7 °F 39% 29.90 in 10.0 mi SSE 12.7 mph 16.1 mph N/A   Clear
5:35 PM 70.9 °F 43.5 °F 37% 29.91 in 10.0 mi SE 10.4 mph - N/A   Clear
5:55 PM 69.4 °F 42.8 °F 38% 29.92 in 10.0 mi SSE 4.6 mph - N/A   Scattered Clouds
6:15 PM 66.9 °F 42.4 °F 41% 29.92 in 10.0 mi SSE 3.5 mph - N/A   Overcast
6:35 PM 66.7 °F 42.8 °F 42% 29.91 in 10.0 mi SSE 5.8 mph - N/A   Mostly Cloudy
6:55 PM 66.6 °F 42.6 °F 42% 29.91 in 10.0 mi Calm Calm - N/A   Mostly Cloudy
7:15 PM 65.8 °F 43.5 °F 44% 29.90 in 10.0 mi East 4.6 mph - N/A   Mostly Cloudy
7:35 PM 65.1 °F 43.3 °F 45% 29.89 in 10.0 mi SE 5.8 mph - N/A   Scattered Clouds
7:55 PM 63.5 °F 42.8 °F 47% 29.89 in 10.0 mi SE 3.5 mph - N/A   Clear
8:15 PM 63.3 °F 43.2 °F 48% 29.90 in 10.0 mi SE 4.6 mph - N/A   Scattered Clouds
8:35 PM 62.4 °F 43.7 °F 50% 29.91 in 10.0 mi East 4.6 mph - N/A   Scattered Clouds
8:55 PM 62.1 °F 43.7 °F 51% 29.91 in 10.0 mi East 3.5 mph - N/A   Mostly Cloudy
9:15 PM 62.1 °F 44.1 °F 52% 29.92 in 10.0 mi East 3.5 mph - N/A Thunderstorm Scattered Clouds
9:35 PM 61.5 °F 45.7 °F 56% 29.92 in 10.0 mi ESE 3.5 mph - N/A Thunderstorm Scattered Clouds
9:55 PM 59.4 °F 50.0 °F 71% 29.94 in 10.0 mi North 5.8 mph - N/A   Scattered Clouds
10:15 PM 58.3 °F 50.0 °F 74% 29.94 in 10.0 mi NNE 5.8 mph - N/A   Mostly Cloudy
10:35 PM 58.8 °F 49.1 °F 70% 29.95 in 10.0 mi ENE 5.8 mph - N/A   Scattered Clouds
10:55 PM 59.0 °F 51.1 °F 75% 29.93 in 10.0 mi NNE 5.8 mph - N/A   Mostly Cloudy
11:15 PM 58.3 °F 53.2 °F 83% 29.93 in 10.0 mi NNE 4.6 mph - N/A   Mostly Cloudy
11:35 PM 58.3 °F 53.8 °F 85% 29.95 in 10.0 mi NW 4.6 mph - N/A   Mostly Cloudy
11:55 PM 58.3 °F 56.8 °F 95% 29.97 in 5.0 mi Calm Calm - N/A   Mostly Cloudy